Regional Weather Roundup
Issued by NWS

Home | Current Version | Previous Version | Text Only | Print | Product List | Glossary Off
Versions: 1 2 3 4 5 6 7 8 9 10 11 12 13 14 15 16 17 18 19 20 21 22 23 24 25 26 27 28 29 30 31 32 33 34 35 36 37 38 39 40 41 42 43 44 45 46 47 48 49 50

000
ASUS43 KBIS 010020
RWRND

NORTH DAKOTA REGIONAL WEATHER ROUNDUP
NATIONAL WEATHER SERVICE BISMARCK ND
700 PM CDT SUN AUG 31 2014

NOTE: "FAIR" INDICATES FEW OR NO CLOUDS BELOW 12,000 FEET WITH NO
SIGNIFICANT WEATHER AND/OR OBSTRUCTIONS TO VISIBILITY.


NDZ001>003-009>011-017-010100-
NORTHWEST NORTH DAKOTA

CITY           SKY/WX    TMP DP  RH WIND       PRES   REMARKS
WILLISTON      CLOUDY    63  55  75 NE8       29.72S
6HR MIN TEMP:  58; 6HR MAX TEMP:  76; 6HR PCP:  0.19;

MINOT          MOSUNNY   69  51  52 NW8       29.68R
MINOT AFB      MOSUNNY   71  51  50 N6        29.67S
$$

NDZ018>021-031>035-040>046-010100-
SOUTHWEST NORTH DAKOTA

CITY           SKY/WX    TMP DP  RH WIND       PRES   REMARKS
BISMARCK       PTSUNNY   72  57  59 CALM      29.70R
6HR MIN TEMP:  70; 6HR MAX TEMP:  78;

DICKINSON      CLOUDY    67  58  72 SW13      29.73R
GARRISON         N/A     72  51  47 N7        29.69R
6HR MIN TEMP:  62; 6HR MAX TEMP:  75; 6HR PCP:  0.07;

HETTINGER ARPT CLOUDY    62  49  62 W10       29.78R
$$

NDZ004>008-012>016-024-026-027-054-010100-
NORTHEAST NORTH DAKOTA

CITY           SKY/WX    TMP DP  RH WIND       PRES   REMARKS
GRAND FORKS    CLOUDY    70  60  70 W6        29.60R
GRND FRKS AFB  CLOUDY    72  63  73 W6        29.62S
DEVILS LAKE    MOSUNNY   70  54  56 NW12      29.64R
$$

NDZ022-023-025-028>030-036>039-047>053-010100-
SOUTHEAST NORTH DAKOTA

CITY           SKY/WX    TMP DP  RH WIND       PRES   REMARKS
FARGO          CLOUDY    72  63  73 W7        29.61F
6HR MIN TEMP:  69; 6HR MAX TEMP:  75;

JAMESTOWN      PTSUNNY   71  58  63 N3        29.66F
$$




USA.gov is the U.S. government's official web portal to all federal, state and local government web resources and services.